星链-5713 (STARLINK-5713 )

导读 | 星芒AI

STARLINK-5713 是 SpaceX 星链计划中的一颗低轨道通信卫星,属于第 14 批部署的星链卫星群。该卫星于 2022 年发射,运行在约 550 公里的高度,旨在为全球提供高速互联网服务。作为星链网络的一部分,它支持宽带连接,尤其在偏远地区具有重要意义。星链项目计划部署数万颗卫星,以构建覆盖全球的卫星互联网系统。

基本信息
目录编号:
55578
目录名称:
STARLINK-5713
国际标识:
2023-020K
轨道中心:
EARTH
卫星名称:
星链-5713
卫星全名:
星链-5713 (STARLINK-5713 )
卫星状态:
已陨落 最后检测时间 2025-04-08
发射日期:
2023-02-12 UTC
国别 :
美国 (US)
星等 :
--
轨道信息
数据来源 国际轨道数据
星历时间: 2025-04-08T12:18:17+0800
轨道信息已过期257天
半长轴: 6522.22km
偏心率: 0.0008029
轨道倾角: 42.969°
近地点辐角 231.918°
升交点赤经 356.551°
平近点角 259.395°
近地点: 138.848km
远地点: 149.322km
周期: 87.368分钟
每日圈数: 16.481989
详细信息
固有亮度:
5
最大亮度:
2.5
卫星平台:
Starlink v1.5
覆盖范围:
全球
运营商:
太空探索技术公司
运营商所在国:
美国
制造商(研发单位):
太空探索技术公司
制造商所在国:
美国
使用方式:
暂无
卫星简介
星链(Starlink)计划是由太空探索技术公司(SpaceX)提出的一个巨型低轨卫星互联网星座项目,计划在2019年至2024年间在太空搭建由约1.2万颗卫星组成的“星链”网络,其中1584颗将部署在地球上空550千米处的近地轨道,并从2020年开始工作。该卫星仍在工作。